Location: Proctor
(47.8934°N, 114.3048°W)
Time: 03:07:04
(UTC+00:00)

AO-109 - Pass Details

Date: 05 July 2022
Orbit: 469 x 506 km, 60.7° (Epoch: 11 August)

Event Time Altitude Azimuth Distance (km) Brightness Sun altitude
Exits shadow 10:27:29 14° 206° (SSW) 1,398 ? -10.2°
Maximum altitude 10:30:27 55° 130° (SE) 587 ? -9.9°
Drops below altitude 10° 10:34:07 10° 53° (NE) 1,676 ? -9.5°
Sets 10:36:20 0° 49° (NE) 2,568 ? -9.2°
